DAL2419 KPHX-KSEA

Flight info

Callsign DAL2419
Flight time N/A
Altitude 38000
Route QUAKY1 GCN WINEN NEERO KOATA PDT CHINS5
Aircraft A319/M-SDE3FGHIRWY/LB1

Departure

Time 2026-04-30 20:30
Airport Phoenix Sky Harbor International Airport (KPHX)

Arrival

Time N/A
Airport Seattle–Tacoma International Airport (KSEA)
Time Latitude Longitude Altitude Speed Heading
2026-04-30 20:22 33.43288 -112.01097 1117 ft 0 kts 90°
2026-04-30 20:23 33.43288 -112.01096 1125 ft 1 kts 90°
2026-04-30 20:24 33.43288 -112.01066 1122 ft 8 kts 90°
2026-04-30 20:24 33.43287 -112.00969 1125 ft 14 kts 90°
2026-04-30 20:24 33.43288 -112.00855 1118 ft 14 kts 90°
2026-04-30 20:24 33.43288 -112.00740 1125 ft 14 kts 90°
2026-04-30 20:25 33.43288 -112.00507 1121 ft 14 kts 91°
2026-04-30 20:25 33.43284 -112.00429 1125 ft 14 kts 93°
2026-04-30 20:26 33.43284 -112.00187 1125 ft 15 kts 90°
2026-04-30 20:26 33.43282 -111.99938 1120 ft 15 kts 90°
2026-04-30 20:26 33.43282 -111.99810 1125 ft 15 kts 90°
2026-04-30 20:27 33.43283 -111.99552 1120 ft 16 kts 90°
2026-04-30 20:27 33.43283 -111.99308 1125 ft 10 kts 90°
2026-04-30 20:28 33.43196 -111.99273 1125 ft 7 kts 220°
2026-04-30 20:28 33.43159 -111.99316 1133 ft 3 kts 226°
2026-04-30 20:29 33.43104 -111.99428 1132 ft 12 kts 270°
2026-04-30 20:30 33.43104 -112.01924 1202 ft 170 kts 270°
2026-04-30 20:30 33.43200 -112.05921 3072 ft 162 kts 271°
2026-04-30 20:31 33.43322 -112.10748 3748 ft 229 kts 270°
2026-04-30 20:32 33.43572 -112.16840 5807 ft 253 kts 287°
2026-04-30 20:32 33.46053 -112.19611 7371 ft 262 kts 349°
2026-04-30 20:33 33.47878 -112.19704 8251 ft 263 kts
2026-04-30 20:33 33.51539 -112.19631 10010 ft 264 kts
2026-04-30 20:33 33.53384 -112.19478 10731 ft 270 kts
2026-04-30 20:34 33.57358 -112.18349 11272 ft 317 kts 13°
2026-04-30 20:34 33.61793 -112.16423 11687 ft 365 kts 33°
2026-04-30 20:35 33.63708 -112.14363 12182 ft 376 kts 46°
2026-04-30 20:35 33.65507 -112.12055 12809 ft 381 kts 46°
2026-04-30 20:35 33.69200 -112.07354 14010 ft 392 kts 46°
2026-04-30 20:36 33.71086 -112.04957 14573 ft 397 kts 46°
2026-04-30 20:36 33.73099 -112.02670 15129 ft 401 kts 36°
2026-04-30 20:36 33.78060 -111.99610 16241 ft 405 kts 15°
2026-04-30 20:37 33.80825 -111.98924 16789 ft 408 kts
2026-04-30 20:37 33.83642 -111.98403 17355 ft 412 kts
2026-04-30 20:37 33.86490 -111.97872 17926 ft 416 kts
2026-04-30 20:37 33.89364 -111.97329 18435 ft 420 kts
2026-04-30 20:38 33.92264 -111.96776 18917 ft 424 kts
2026-04-30 20:38 33.95190 -111.96213 19395 ft 427 kts
2026-04-30 20:38 33.98136 -111.95647 19879 ft 430 kts
2026-04-30 20:39 34.04090 -111.94508 20820 ft 437 kts
2026-04-30 20:39 34.07065 -111.93950 21266 ft 440 kts
2026-04-30 20:39 34.10118 -111.93727 21696 ft 441 kts 356°
2026-04-30 20:40 34.16259 -111.94344 22551 ft 446 kts 352°
2026-04-30 20:40 34.19357 -111.94685 22970 ft 449 kts 352°
2026-04-30 20:40 34.22480 -111.95028 23392 ft 451 kts 352°
2026-04-30 20:41 34.28759 -111.95718 24118 ft 455 kts 352°
2026-04-30 20:41 34.31926 -111.96067 24459 ft 458 kts 351°
2026-04-30 20:41 34.35108 -111.96418 24779 ft 461 kts 351°
2026-04-30 20:41 34.38314 -111.96775 25094 ft 464 kts 351°
2026-04-30 20:42 34.41539 -111.97139 25407 ft 467 kts 351°
2026-04-30 20:42 34.44778 -111.97505 25716 ft 470 kts 351°
2026-04-30 20:42 34.51307 -111.98228 26423 ft 472 kts 351°
2026-04-30 20:43 34.54586 -111.98583 26745 ft 474 kts 351°
2026-04-30 20:43 34.57876 -111.98944 27049 ft 476 kts 351°
2026-04-30 20:43 34.61185 -111.99309 27349 ft 478 kts 350°
2026-04-30 20:44 34.67842 -112.00050 27935 ft 483 kts 350°
2026-04-30 20:44 34.71195 -112.00425 28247 ft 484 kts 351°
2026-04-30 20:44 34.77846 -112.01160 29295 ft 477 kts 351°
2026-04-30 20:45 34.84392 -112.01883 30155 ft 474 kts 351°
2026-04-30 20:45 34.87681 -112.02257 30474 ft 475 kts 351°
2026-04-30 20:45 34.90973 -112.02635 30771 ft 476 kts 350°
2026-04-30 20:46 35.00826 -112.03749 31874 ft 472 kts 351°
2026-04-30 20:46 35.04098 -112.04117 32188 ft 472 kts 351°
2026-04-30 20:47 35.10651 -112.04859 32827 ft 473 kts 350°
2026-04-30 20:47 35.13932 -112.05234 33124 ft 474 kts 349°
2026-04-30 20:48 35.20482 -112.05974 34094 ft 469 kts 351°
2026-04-30 20:48 35.23722 -112.06337 34463 ft 467 kts 350°
2026-04-30 20:48 35.26959 -112.06706 34758 ft 467 kts 350°
2026-04-30 20:48 35.30199 -112.07076 35017 ft 468 kts 350°
2026-04-30 20:49 35.33441 -112.07444 35267 ft 468 kts 350°
2026-04-30 20:49 35.36687 -112.07814 35511 ft 469 kts 350°
2026-04-30 20:49 35.39941 -112.08171 35751 ft 469 kts 351°
2026-04-30 20:50 35.46380 -112.08813 36350 ft 466 kts 351°
2026-04-30 20:50 35.49616 -112.09120 36565 ft 466 kts 351°
2026-04-30 20:50 35.52851 -112.09427 36774 ft 467 kts 351°
2026-04-30 20:50 35.56089 -112.09755 36967 ft 467 kts 350°
2026-04-30 20:51 35.59325 -112.10128 37128 ft 467 kts 349°
2026-04-30 20:51 35.65773 -112.10937 37682 ft 464 kts 349°
2026-04-30 20:51 35.68974 -112.11339 37966 ft 462 kts 349°
2026-04-30 20:52 35.72182 -112.11735 38085 ft 464 kts 349°
2026-04-30 20:52 35.75399 -112.12126 38095 ft 466 kts 349°
2026-04-30 20:53 35.85082 -112.13289 38110 ft 465 kts 351°
2026-04-30 20:53 35.88287 -112.13672 38252 ft 461 kts 351°
2026-04-30 20:53 35.91472 -112.14055 38251 ft 459 kts 351°
2026-04-30 20:54 35.97568 -112.15811 38251 ft 449 kts 333°
2026-04-30 20:54 36.00364 -112.17484 38250 ft 446 kts 327°
2026-04-30 20:55 36.08542 -112.22966 38230 ft 445 kts 328°
2026-04-30 20:55 36.14000 -112.26608 38201 ft 446 kts 328°
2026-04-30 20:56 36.22189 -112.32085 38161 ft 446 kts 328°
2026-04-30 20:57 36.30361 -112.37589 38126 ft 445 kts 328°
2026-04-30 20:57 36.35807 -112.41260 38129 ft 445 kts 328°
2026-04-30 20:58 36.43974 -112.46762 38103 ft 445 kts 328°
2026-04-30 20:58 36.49418 -112.50433 38124 ft 445 kts 328°
2026-04-30 20:59 36.57547 -112.55946 38121 ft 443 kts 328°
2026-04-30 21:00 36.68309 -112.63262 38135 ft 441 kts 328°
2026-04-30 21:01 36.76367 -112.68755 38133 ft 438 kts 328°
2026-04-30 21:02 36.84368 -112.74214 38174 ft 436 kts 328°
2026-04-30 21:02 36.89685 -112.77855 38213 ft 435 kts 327°
2026-04-30 21:03 36.94982 -112.81490 38221 ft 433 kts 328°
2026-04-30 21:03 37.00262 -112.85105 38232 ft 432 kts 328°
2026-04-30 21:04 37.05527 -112.88726 38229 ft 431 kts 328°
2026-04-30 21:04 37.13399 -112.94160 38211 ft 430 kts 327°
2026-04-30 21:05 37.18638 -112.97773 38183 ft 429 kts 327°
2026-04-30 21:05 37.23866 -113.01390 38156 ft 430 kts 327°
2026-04-30 21:06 37.29093 -113.05024 38142 ft 429 kts 327°
2026-04-30 21:06 37.34316 -113.08647 38145 ft 428 kts 327°
2026-04-30 21:07 37.39529 -113.12263 38151 ft 428 kts 327°
2026-04-30 21:07 37.44735 -113.15883 38191 ft 427 kts 327°
2026-04-30 21:08 37.49905 -113.19485 38236 ft 427 kts 327°
2026-04-30 21:08 37.55100 -113.23108 38243 ft 426 kts 327°
2026-04-30 21:09 37.60289 -113.26731 38250 ft 427 kts 326°
2026-04-30 21:09 37.65476 -113.30374 38262 ft 427 kts 326°
2026-04-30 21:10 37.70665 -113.34018 38242 ft 427 kts 326°
2026-04-30 21:10 37.75855 -113.37661 38230 ft 427 kts 326°
2026-04-30 21:11 37.81044 -113.41312 38208 ft 427 kts 326°
2026-04-30 21:11 37.86229 -113.44971 38181 ft 426 kts 326°
2026-04-30 21:12 37.91403 -113.48635 38184 ft 425 kts 326°
2026-04-30 21:12 37.96116 -113.53001 38190 ft 418 kts 315°
2026-04-30 21:13 38.00542 -113.57789 38184 ft 418 kts 316°
2026-04-30 21:13 38.04971 -113.62571 38216 ft 418 kts 316°
2026-04-30 21:14 38.09392 -113.67352 38205 ft 417 kts 316°
2026-04-30 21:14 38.13796 -113.72132 38208 ft 416 kts 315°
2026-04-30 21:15 38.18193 -113.76912 38198 ft 416 kts 316°
2026-04-30 21:15 38.22593 -113.81697 38199 ft 416 kts 316°
2026-04-30 21:16 38.26990 -113.86484 38208 ft 417 kts 316°
2026-04-30 21:16 38.30647 -113.90481 38204 ft 417 kts 316°
2026-04-30 21:17 38.35040 -113.95292 38204 ft 416 kts 316°
2026-04-30 21:17 38.40143 -114.00883 38220 ft 416 kts 316°
2026-04-30 21:18 38.44524 -114.05693 38222 ft 415 kts 315°
2026-04-30 21:18 38.48188 -114.09725 38208 ft 415 kts 316°
2026-04-30 21:19 38.52561 -114.14539 38212 ft 415 kts 316°
2026-04-30 21:19 38.56931 -114.19351 38235 ft 415 kts 316°
2026-04-30 21:20 38.61291 -114.24166 38225 ft 414 kts 316°
2026-04-30 21:20 38.65635 -114.28981 38221 ft 413 kts 315°
2026-04-30 21:21 38.69946 -114.33770 38212 ft 413 kts 316°
2026-04-30 21:22 38.76450 -114.40990 38207 ft 412 kts 316°
2026-04-30 21:23 38.85112 -114.50628 38203 ft 412 kts 316°
2026-04-30 21:23 38.91597 -114.57877 38221 ft 412 kts 316°
2026-04-30 21:24 38.95911 -114.62699 38214 ft 411 kts 315°
2026-04-30 21:24 39.00214 -114.67528 38226 ft 411 kts 316°
2026-04-30 21:25 39.06677 -114.74781 38292 ft 411 kts 316°
2026-04-30 21:26 39.13112 -114.82035 38093 ft 408 kts 315°
2026-04-30 21:27 39.19487 -114.89234 38135 ft 408 kts 315°
2026-04-30 21:27 39.23749 -114.94065 38145 ft 407 kts 315°
2026-04-30 21:28 39.30115 -115.01291 38120 ft 406 kts 316°
2026-04-30 21:29 39.36487 -115.08526 38090 ft 406 kts 315°
2026-04-30 21:30 39.47081 -115.20621 38054 ft 406 kts 316°
2026-04-30 21:31 39.57659 -115.32731 38076 ft 406 kts 316°
2026-04-30 21:32 39.63986 -115.40005 38049 ft 405 kts 316°
2026-04-30 21:32 39.68195 -115.44863 38052 ft 405 kts 316°
2026-04-30 21:33 39.74503 -115.52144 38076 ft 405 kts 316°
2026-04-30 21:34 39.78706 -115.57012 38076 ft 405 kts 316°
2026-04-30 21:34 39.85010 -115.64322 38042 ft 404 kts 316°
2026-04-30 21:35 39.89204 -115.69197 38047 ft 404 kts 315°
2026-04-30 21:35 39.93398 -115.74079 38055 ft 404 kts 315°
2026-04-30 21:36 39.97592 -115.78967 38050 ft 404 kts 316°
2026-04-30 21:37 40.05977 -115.88742 38073 ft 405 kts 316°
2026-04-30 21:37 40.10164 -115.93662 38069 ft 404 kts 315°
2026-04-30 21:38 40.14342 -115.98584 38048 ft 404 kts 316°
2026-04-30 21:38 40.18492 -116.03471 38060 ft 405 kts 316°
2026-04-30 21:39 40.22678 -116.08393 38070 ft 405 kts 316°
2026-04-30 21:39 40.26865 -116.13326 38067 ft 405 kts 316°
2026-04-30 21:40 40.31046 -116.18266 38064 ft 405 kts 316°
2026-04-30 21:40 40.35221 -116.23215 38082 ft 405 kts 316°
2026-04-30 21:41 40.39397 -116.28175 38058 ft 405 kts 316°
2026-04-30 21:41 40.43578 -116.33134 38057 ft 405 kts 316°
2026-04-30 21:42 40.47754 -116.38107 38061 ft 405 kts 316°
2026-04-30 21:42 40.51929 -116.43090 38082 ft 405 kts 316°
2026-04-30 21:43 40.56101 -116.48078 38089 ft 405 kts 316°
2026-04-30 21:43 40.60273 -116.53071 38099 ft 405 kts 316°
2026-04-30 21:44 40.64449 -116.58065 38089 ft 405 kts 316°
2026-04-30 21:44 40.68622 -116.63072 38110 ft 406 kts 316°
2026-04-30 21:45 40.72791 -116.68091 38113 ft 406 kts 316°
2026-04-30 21:45 40.76958 -116.73112 38115 ft 406 kts 316°
2026-04-30 21:46 40.81097 -116.78107 38075 ft 406 kts 316°
2026-04-30 21:46 40.85256 -116.83152 38069 ft 406 kts 316°
2026-04-30 21:47 40.89419 -116.88200 38045 ft 406 kts 316°
2026-04-30 21:47 40.93586 -116.93250 38047 ft 406 kts 316°
2026-04-30 21:48 40.97753 -116.98311 38066 ft 407 kts 316°
2026-04-30 21:48 41.01919 -117.03389 38066 ft 407 kts 316°
2026-04-30 21:49 41.06081 -117.08473 38066 ft 407 kts 316°
2026-04-30 21:49 41.10248 -117.13565 38079 ft 407 kts 316°
2026-04-30 21:50 41.14415 -117.18672 38056 ft 408 kts 316°
2026-04-30 21:50 41.18581 -117.23780 38061 ft 408 kts 316°
2026-04-30 21:51 41.22744 -117.28903 38064 ft 408 kts 316°
2026-04-30 21:51 41.26885 -117.33999 38086 ft 408 kts 316°
2026-04-30 21:52 41.31051 -117.39135 38084 ft 408 kts 316°
2026-04-30 21:52 41.35210 -117.44278 38085 ft 409 kts 316°
2026-04-30 21:53 41.39369 -117.49433 38062 ft 409 kts 316°
2026-04-30 21:53 41.43530 -117.54595 38073 ft 409 kts 316°
2026-04-30 21:54 41.47691 -117.59764 38072 ft 409 kts 316°
2026-04-30 21:54 41.51849 -117.64943 38078 ft 409 kts 316°
2026-04-30 21:55 41.55979 -117.70100 38086 ft 409 kts 316°
2026-04-30 21:55 41.60141 -117.75297 38088 ft 410 kts 316°
2026-04-30 21:56 41.64301 -117.80500 38088 ft 410 kts 316°
2026-04-30 21:56 41.68458 -117.85717 38092 ft 410 kts 316°
2026-04-30 21:57 41.72611 -117.90939 38089 ft 410 kts 316°
2026-04-30 21:57 41.76744 -117.96138 38084 ft 399 kts 316°
2026-04-30 21:58 41.78730 -117.98637 38091 ft 386 kts 316°
2026-04-30 21:58 41.80714 -118.01015 38091 ft 380 kts 321°
2026-04-30 21:58 41.85293 -118.04501 38099 ft 380 kts 335°
2026-04-30 21:59 41.90169 -118.07256 38103 ft 380 kts 335°
2026-04-30 22:00 41.97473 -118.11403 38112 ft 380 kts 334°
2026-04-30 22:00 42.04775 -118.15573 38120 ft 380 kts 335°
2026-04-30 22:01 42.09644 -118.18355 38121 ft 380 kts 334°
2026-04-30 22:01 42.14514 -118.21136 38121 ft 380 kts 335°
2026-04-30 22:02 42.19384 -118.23928 38119 ft 380 kts 335°
2026-04-30 22:02 42.24255 -118.26731 38118 ft 381 kts 335°
2026-04-30 22:03 42.29129 -118.29534 38118 ft 381 kts 335°
2026-04-30 22:03 42.33970 -118.32321 38124 ft 381 kts 335°
2026-04-30 22:04 42.38845 -118.35131 38126 ft 381 kts 335°
2026-04-30 22:05 42.46157 -118.39365 38142 ft 381 kts 335°
2026-04-30 22:05 42.51025 -118.42198 38145 ft 381 kts 335°
2026-04-30 22:06 42.55893 -118.45023 38141 ft 381 kts 335°
2026-04-30 22:06 42.63194 -118.49269 38144 ft 380 kts 335°
2026-04-30 22:07 42.68058 -118.52103 38142 ft 380 kts 335°
2026-04-30 22:07 42.72136 -118.54492 38145 ft 381 kts 335°
2026-04-30 22:08 42.77003 -118.57345 38145 ft 381 kts 335°
2026-04-30 22:08 42.81871 -118.60200 38144 ft 381 kts 335°
2026-04-30 22:09 42.86703 -118.63037 38144 ft 381 kts 335°
2026-04-30 22:09 42.91569 -118.65898 38143 ft 381 kts 335°
2026-04-30 22:10 42.96443 -118.68759 38148 ft 381 kts 335°
2026-04-30 22:10 43.01316 -118.71630 38150 ft 381 kts 335°
2026-04-30 22:11 43.08616 -118.75965 38149 ft 381 kts 335°
2026-04-30 22:12 43.13489 -118.78847 38150 ft 382 kts 335°
2026-04-30 22:12 43.18364 -118.81729 38160 ft 382 kts 335°
2026-04-30 22:13 43.23240 -118.84634 38186 ft 382 kts 335°
2026-04-30 22:13 43.28115 -118.87529 38187 ft 381 kts 335°
2026-04-30 22:14 43.32980 -118.90431 38186 ft 381 kts 335°
2026-04-30 22:14 43.37834 -118.93325 38190 ft 380 kts 335°
2026-04-30 22:15 43.42748 -118.95985 38185 ft 381 kts 344°
2026-04-30 22:15 43.48023 -118.96806 38190 ft 384 kts 358°
2026-04-30 22:16 43.53339 -118.96736 38189 ft 385 kts 358°
2026-04-30 22:17 43.64061 -118.96583 38171 ft 385 kts 358°
2026-04-30 22:17 43.72105 -118.96488 38190 ft 385 kts 358°
2026-04-30 22:18 43.80132 -118.96382 38191 ft 384 kts 358°
2026-04-30 22:19 43.88141 -118.96274 38188 ft 383 kts 358°
2026-04-30 22:20 43.96132 -118.96172 38177 ft 383 kts 358°
2026-04-30 22:20 44.04122 -118.96073 38178 ft 383 kts 358°
2026-04-30 22:21 44.09443 -118.96001 38192 ft 382 kts 358°
2026-04-30 22:21 44.14761 -118.95941 38186 ft 382 kts 358°
2026-04-30 22:22 44.20068 -118.95871 38176 ft 381 kts 358°
2026-04-30 22:22 44.25368 -118.95809 38167 ft 381 kts 358°
2026-04-30 22:23 44.30664 -118.95726 38168 ft 381 kts 358°
2026-04-30 22:23 44.35927 -118.95647 38166 ft 381 kts 358°
2026-04-30 22:24 44.41222 -118.95578 38152 ft 381 kts 358°
2026-04-30 22:24 44.46516 -118.95510 38176 ft 380 kts 358°
2026-04-30 22:25 44.51809 -118.95441 38166 ft 380 kts 358°
2026-04-30 22:25 44.57100 -118.95373 38163 ft 380 kts 359°
2026-04-30 22:26 44.65027 -118.95269 38154 ft 379 kts 359°
2026-04-30 22:27 44.70305 -118.95201 38155 ft 379 kts 359°
2026-04-30 22:27 44.78213 -118.95105 38149 ft 378 kts 359°
2026-04-30 22:28 44.86104 -118.95007 38158 ft 378 kts 359°
2026-04-30 22:29 44.96634 -118.94866 38142 ft 378 kts 358°
2026-04-30 22:31 45.15065 -118.94628 38139 ft 379 kts 359°
2026-04-30 22:32 45.28199 -118.94438 38135 ft 379 kts 359°
2026-04-30 22:33 45.41384 -118.94267 38139 ft 379 kts 359°
2026-04-30 22:35 45.54574 -118.94081 38140 ft 379 kts 359°
2026-04-30 22:36 45.67738 -118.95074 38156 ft 389 kts 341°
2026-04-30 22:37 45.74530 -119.01740 38123 ft 412 kts 313°
2026-04-30 22:37 45.76369 -119.04855 38122 ft 417 kts 313°
2026-04-30 22:38 45.83892 -119.17597 38126 ft 418 kts 313°
2026-04-30 22:39 45.89509 -119.27129 38141 ft 417 kts 313°
2026-04-30 22:40 46.00666 -119.46173 38134 ft 417 kts 312°
2026-04-30 22:41 46.10000 -119.62200 38123 ft 418 kts 312°
2026-04-30 22:43 46.21182 -119.81545 38117 ft 419 kts 312°
2026-04-30 22:44 46.28617 -119.94479 38125 ft 420 kts 312°
2026-04-30 22:45 46.39803 -120.14058 38119 ft 421 kts 311°
2026-04-30 22:47 46.51002 -120.33778 37093 ft 424 kts 311°
2026-04-30 22:47 46.54741 -120.40404 36334 ft 426 kts 311°
2026-04-30 22:48 46.58458 -120.47157 34652 ft 432 kts 309°
2026-04-30 22:49 46.63631 -120.58027 31685 ft 443 kts 305°
2026-04-30 22:49 46.68885 -120.69361 28117 ft 458 kts 306°
2026-04-30 22:50 46.76291 -120.84890 23214 ft 475 kts 306°
2026-04-30 22:51 46.80062 -120.92878 20767 ft 478 kts 305°
2026-04-30 22:51 46.83781 -121.00794 18972 ft 467 kts 304°
2026-04-30 22:52 46.85619 -121.04708 18147 ft 464 kts 304°
2026-04-30 22:52 46.89208 -121.12372 16498 ft 452 kts 304°
2026-04-30 22:53 46.92692 -121.19818 14957 ft 443 kts 303°
2026-04-30 22:53 46.96115 -121.27151 13858 ft 425 kts 303°
2026-04-30 22:53 46.97744 -121.30650 13727 ft 407 kts 303°
2026-04-30 22:54 47.00792 -121.37217 13462 ft 373 kts 303°
2026-04-30 22:55 47.04925 -121.46139 13053 ft 333 kts 303°
2026-04-30 22:55 47.07448 -121.51607 12663 ft 317 kts 303°
2026-04-30 22:56 47.09887 -121.56901 12128 ft 308 kts 302°
2026-04-30 22:56 47.13479 -121.64710 12141 ft 308 kts 303°
2026-04-30 22:57 47.15860 -121.69892 12143 ft 308 kts 302°
2026-04-30 22:57 47.18200 -121.75146 12145 ft 325 kts 295°
2026-04-30 22:58 47.19485 -121.80919 11646 ft 373 kts 285°
2026-04-30 22:59 47.21517 -121.91402 10666 ft 340 kts 284°
2026-04-30 22:59 47.21930 -122.00404 10046 ft 296 kts 266°